This is the latest recevied weather packets stored in our database for station/object EA8DNP-14. If no packets are shown the sender has not sent any weather packets the latest 1 day(s).
| Time | Temp. | Humidity | Pressure | Rain* | Wind** | Luminosity | Snow |
|---|---|---|---|---|---|---|---|
| 1788622894 | 28.89° C | 24% | 903.9 hPa | - | - | - | - |
| 1788622470 | 28.89° C | 24% | 904.1 hPa | - | - | - | - |
| 1788621570 | 31.11° C | 23% | 904.2 hPa | - | - | - | - |
| 1788620670 | 31.67° C | 22% | 904.4 hPa | - | - | - | - |
| 1788619773 | 30.56° C | 22% | 904.3 hPa | - | - | - | - |
| 1788618960 | 28.89° C | 23% | 904.5 hPa | - | - | - | - |
| 1788618060 | 28.33° C | 22% | 904.6 hPa | - | - | - | - |
| 1788617160 | 29.44° C | 21% | 904.7 hPa | - | - | - | - |
| 1788616260 | 30.56° C | 19% | 904.5 hPa | - | - | - | - |
| 1788615360 | 31.11° C | 19% | 904.5 hPa | - | - | - | - |
| 1788614459 | 30° C | 19% | 904.7 hPa | - | - | - | - |
| 1788613559 | 28.33° C | 20% | 904.7 hPa | - | - | - | - |
| 1788612659 | 27.78° C | 21% | 904.8 hPa | - | - | - | - |
| 1788611759 | 29.44° C | 17% | 904.9 hPa | - | - | - | - |
| 1788610859 | 28.33° C | 17% | 905 hPa | - | - | - | - |
| 1788609959 | 29.44° C | 16% | 905.3 hPa | - | - | - | - |
| 1788609059 | 28.89° C | 15% | 905.3 hPa | - | - | - | - |
| 1788608159 | 27.22° C | 14% | 905.4 hPa | - | - | - | - |
| 1788607259 | 26.67° C | 14% | 905.8 hPa | - | - | - | - |
| 1788606359 | 26.11° C | 15% | 905.9 hPa | - | - | - | - |
| 1788605458 | 26.11° C | 14% | 905.6 hPa | - | - | - | - |
| 1788604558 | 25.56° C | 15% | 905.8 hPa | - | - | - | - |
| 1788603658 | 26.11° C | 14% | 905.6 hPa | - | - | - | - |
| 1788602758 | 27.22° C | 13% | 905.7 hPa | - | - | - | - |
| 1788601858 | 27.78° C | 12% | 905.4 hPa | - | - | - | - |
* Rain since midnight (hover to see other rain measurements)
** Current wind speed in m/s (hover to see current wind gust speed)